TimeEST,TemperatureF,Dew PointF,Humidity,Sea Level PressureIn,VisibilityMPH,Wind Direction,Wind SpeedMPH,Gust SpeedMPH,PrecipitationIn,Events,Conditions,WindDirDegrees,DateUTC
12:53 AM,-7.1,-11.9,79,30.26,10.0,SE,3.5,-,N/A,,Clear,130,2014-02-28 05:53:00
1:53 AM,-8.0,-11.9,83,30.27,10.0,SE,4.6,-,N/A,,Clear,130,2014-02-28 06:53:00
2:53 AM,-7.1,-11.9,79,30.27,10.0,SE,4.6,-,N/A,,Clear,140,2014-02-28 07:53:00
3:53 AM,-5.1,-9.9,80,30.27,10.0,SE,5.8,-,N/A,,Overcast,140,2014-02-28 08:53:00
4:53 AM,-4.0,-9.9,76,30.27,10.0,ESE,5.8,-,N/A,,Overcast,120,2014-02-28 09:53:00
5:53 AM,-4.0,-11.0,72,30.28,10.0,SE,9.2,-,N/A,,Partly Cloudy,140,2014-02-28 10:53:00
6:53 AM,-2.9,-9.9,72,30.29,10.0,SE,10.4,-,N/A,,Partly Cloudy,140,2014-02-28 11:53:00
7:53 AM,-2.9,-11.0,68,30.29,10.0,SE,8.1,-,N/A,,Clear,130,2014-02-28 12:53:00
8:53 AM,-0.0,-9.0,66,30.30,10.0,SE,9.2,-,N/A,,Clear,140,2014-02-28 13:53:00
9:53 AM,3.9,-6.0,64,30.31,10.0,SSE,12.7,-,N/A,,Clear,150,2014-02-28 14:53:00
10:53 AM,9.0,-5.1,53,30.29,10.0,SE,10.4,-,N/A,,Clear,140,2014-02-28 15:53:00
11:53 AM,12.0,-2.9,51,30.29,10.0,SE,12.7,-,N/A,,Mostly Cloudy,130,2014-02-28 16:53:00
12:53 PM,14.0,-0.0,54,30.25,10.0,SSE,13.8,-,N/A,,Overcast,160,2014-02-28 17:53:00
1:53 PM,15.1,-0.9,49,30.22,10.0,ESE,12.7,-,N/A,,Scattered Clouds,110,2014-02-28 18:53:00
2:53 PM,18.0,-0.0,45,30.17,10.0,SE,12.7,-,N/A,,Mostly Cloudy,140,2014-02-28 19:53:00
3:53 PM,18.0,-0.9,44,30.14,10.0,SE,13.8,-,N/A,,Partly Cloudy,140,2014-02-28 20:53:00
4:53 PM,19.0,1.9,47,30.12,10.0,SE,12.7,-,N/A,,Mostly Cloudy,140,2014-02-28 21:53:00
5:53 PM,19.0,3.0,50,30.11,10.0,SE,12.7,-,N/A,,Overcast,130,2014-02-28 22:53:00
6:53 PM,19.0,5.0,54,30.10,10.0,SE,11.5,-,N/A,,Overcast,140,2014-02-28 23:53:00
7:53 PM,19.0,6.1,57,30.10,10.0,SE,9.2,-,N/A,,Overcast,130,2014-03-01 00:53:00
8:53 PM,19.0,7.0,59,30.10,10.0,ESE,5.8,-,N/A,,Overcast,110,2014-03-01 01:53:00
9:53 PM,19.0,7.0,59,30.10,10.0,ENE,4.6,-,N/A,,Mostly Cloudy,60,2014-03-01 02:53:00
10:53 PM,18.0,8.1,65,30.09,10.0,East,8.1,-,N/A,,Mostly Cloudy,100,2014-03-01 03:53:00
11:53 PM,19.0,9.0,65,30.06,10.0,SSE,12.7,-,N/A,,Overcast,150,2014-03-01 04:53:00